Location: *
(49.1466°N, 1.6216°E)
Time: 04:57:22
(UTC+00:00)

CENTAUR R/B - Pass Details

Date: 25 September 2023
Orbit: 693 x 1493 km, 63.4° (Epoch: 07 December)

Event Time Altitude Azimuth Distance (km) Brightness Sun altitude
Rises 18:34:52 0° 284° (WNW) 3,671 7.9 -8.8°
Reaches altitude 10° 18:37:43 10° 297° (WNW) 2,849 6.3 -9.3°
Maximum altitude 18:43:30 28° 354° (N) 2,060 4.4 -10.2°
Drops below altitude 10° 18:50:13 10° 51° (NE) 3,347 4.9 -11.3°
Enters shadow 18:53:06 - 60° (ENE) 4,197 5.4 -11.8°
